Resultados

10000 Electronico
Fecha Serie Viento Presión Humedad Temperatura
15-09-2018 Final_A
Puesto Andanivel Nombre Dia Mes Año Pais Marca
01 Molina Marcos Julian 11 5 1993 ATERU ARDA 29.44.87 -
02 Molina Luis 7 3 1988 L�FA - 29.59.22 -
03 Muñoz Eulalio 16 7 1995 MES - 30.02.63 -
04 Michia Marcelo Alejandro 23 6 1991 JMCOR FMARP 31.08.77 -
05 Dante Leonel Mansilla 20 12 1995 MDMF - 31.28.43 -
06 Luero Matias 12 3 1988 JMCOR FMARP 31.39.57 -
07 Portillo Julio 23 10 1986 L�FA - 31.41.98 -
08 Fernandez Juan Estevan 12 6 1997 ASAAM AMA 32.02.58 -
09 Ponzo Santiago Tomas 15 2 1996 L�FA - 32.03.66 -
10 Vidal Carlos 19 11 1986 AAAPC - 32.09.77 -
11 Brahim Gustavo Ezequiel 8 2 1983 FCMAX - 32.11.58 -
12 Reales Facundo Ariel 28 6 1985 FCMAX - 32.33.66 -
13 Melgarejo Nicolas 17 2 1990 L�FA - 32.37.65 -
14 Jose Sanchez 5 8 1987 FCMAX - 33.01.44 -
15 Aristei Ignacio 15 12 1975 FCMAX - 33.01.84 -
16 Irusta Sebastian Elias 10 2 1985 FCMAX - 33.18.46 -
17 Baamonde Meyer Lucas Ivan 18 12 1993 JMCOR FMARP 33.39.96 -
18 Sanchez Sanudo Fernando 20 12 1986 FCMAX - 33.52.74 -
19 Alfonso Anibal 11 10 1982 EBFAM - 34.01.77 -
20 Winter Aaron 30 11 1991 ATERU ARDA 34.30.91 -
21 Aldeco Jose 7 2 1980 FTTAF - 34.55.46 -
22 Matias David Buffa 14 7 1987 ATERU ARDA 35.48.71 -
23 Montes de Oca Heber dario 28 11 1997 MLFAM - 35.51.93 -
24 Santiago Cisneros 11 7 1979 NCAF - 35.59.50 -
25 Almada Victor 18 3 1996 EBFAM - 36.18.15 -
26 Gutierrez Jorge 26 10 1984 FTTAF - 36.21.23 -
27 Condori Franco Grabriel 20 6 1993 L�FA - 36.28.35 -
28 Gentile Esteban 6 1 1989 L�FA - 36.32.42 -
29 Cena Nicolas 1 2 1978 FTTAF - 36.57.27 -
30 Espinola Sergio 2 10 1980 NCAF - 37.08.78 -
31 Cortes Pablo 17 12 1991 AAY - 37.37.58 -
32 Fernandez Nob Ile Matias 20 10 1994 AAPCH - 37.56.11 -
33 Miranda Cristian Demian 18 9 1988 FTTAF - 37.58.83 -
34 Rugnone Fabricio 15 10 1985 NCAF - 38.33.18 -
35 Harriague Gonzalo 5 5 1988 NCAF - 39.58.42 -
36 Rivarola Rodolfo Ruben 26 3 1985 NCAF - 40.07.43 -
37 Castro Juan 7 7 1969 EBFAM - 41.03.50 -
38 Niemann Roberto 30 3 1982 PGARI - 41.31.26 -
39 Diaz Facundo De La Cruz 22 2 1988 AAPCH - 42.56.57 -
99 Rodriguez Mariano Oscar 16 6 1984 EBFAM - DNF
99 Bernhardt Riccardo Daniel 4 9 1973 QUIRO - DNS